{"data":{"norad_id":59019,"epoch":"2026-09-20T12:46:19.785216Z","epoch_age_seconds":152688,"freshness":"FRESH","line1":"1 59019U 24036X   26263.53217344  .00000076  00000+0  13405-4 0  9996","line2":"2 59019  53.1558 251.7427 0001683  80.0482 280.0711 15.34403125145176","mean_motion":15.34403125,"eccentricity":0.0001683,"inclination_deg":53.1558,"raan_deg":251.7427,"arg_perigee_deg":80.0482,"mean_anomaly_deg":280.0711,"bstar":1.3405e-5,"rev_number":14517,"period_min":93.847566948875,"perigee_km":461.54264021507,"apogee_km":463.84526391354,"semimajor_km":6840.8309520643,"source":"CELESTRAK","updated_at":"2026-09-21T09:00:34.027686Z"}}